Regional Weather Roundup
Issued by NWS Charleston, WV

Home | Current Version | Previous Version | Graphics & Text | Print | Product List | Glossary On
Versions: 1 2 3 4 5 6 7 8 9 10 11 12 13 14 15 16 17 18 19 20 21 22 23 24 25 26 27 28 29 30 31 32 33 34 35 36 37 38 39 40 41 42 43 44 45 46 47 48 49 50
000
ASUS41 KRLX 102110
RWRRLX
West Virginia Regional Weather Roundup
National Weather Service Charleston WV
400 PM EST SUN DEC 10 2017

Note: "fair" indicates few or no clouds below 12,000 feet with no
significant weather and/or obstructions to visibility.

WVZ003-102200-
Northern Panhandle of West Virginia

CITY           SKY/WX    TMP DP  RH WIND       PRES   REMARKS
WHEELING       CLOUDY    30  17  58 SW9G21    29.96S
$$

WVZ009-102200-
Northwest West Virginia

CITY           SKY/WX    TMP DP  RH WIND       PRES   REMARKS
PARKERSBURG    CLOUDY    33  17  51 VRB6G17   30.04F
$$

WVZ006-102200-
Western West Virginia

CITY           SKY/WX    TMP DP  RH WIND       PRES   REMARKS
HUNTINGTON     CLOUDY    37  14  38 S9G21     30.03F
$$

WVZ015-102200-
West Central West Virginia

CITY           SKY/WX    TMP DP  RH WIND       PRES   REMARKS
CHARLESTON     MOCLDY    38  16  40 SW8       30.03F
$$

WVZ022-031-102200-
North Central West Virginia

CITY           SKY/WX    TMP DP  RH WIND       PRES   REMARKS
CLARKSBURG     CLOUDY    33  19  56 SW10      30.00F
MORGANTOWN     MOCLDY    32  17  54 SW7       29.99F
$$

WVZ025-035-042-045-102200-
Southern West Virginia

CITY           SKY/WX    TMP DP  RH WIND       PRES   REMARKS
BECKLEY        MOCLDY    31  15  52 SW8       29.99F
LOGAN          CLOUDY    36  16  44 CALM      30.02F
BLUEFIELD      SUNNY     32  13  45 W10       30.00S
LEWISBURG      CLEAR     33  16  48 W6        30.01S
$$

WVZ047-102200-
Northern Mountains of West Virginia

CITY           SKY/WX    TMP DP  RH WIND       PRES   REMARKS
ELKINS         CLOUDY    31  16  54 SW6       29.98S
$$

WVZ052-102200-
Eastern Panhandle of West Virginia

CITY           SKY/WX    TMP DP  RH WIND       PRES   REMARKS
MARTINSBURG    CLOUDY    36  17  46 W9        30.00S
PETERSBURG     CLEAR     35  16  44 W3        30.00S
$$



USA.gov is the U.S. government's official web portal to all federal, state and local government web resources and services.